Погода в Урде

Поиск расширенной информации на нашем сайте:

Полезная информация:

Новости сайта



02.01.2020
Опубликован Долгосрочный прогноз погоды по городам России и ближнего зарубежья на январь 2020 года.
Карты: Прогноз на январь и февраль 2020 года, Сравнение прогнозируемой аномалии приземной температуры воздуха на январь 2020 года по разным моделям.




Погода в Урде - сегодня

Время (UTC), дата Ветер
(°,м/с) 
Видим.   Явления Облачность Т
(°С)
Тd
(°С)
f(%) Тe
(°С)
Pmin
(гПа)
dP
(гПа)
Po
(мм)
O2
(г/м3)
Тmin Tmax R s Состояние
почвы
09 22.10.21 230 (ЮЗ) 10 км  пыльный позёмок  9/0 верхняя 
[Ci fib]
+16.4 +4.4 45 +16  1016.1  -1  762  289           
12 22.10.21 250 (З) 10 км  пыльный позёмок  ясно 
+19.3 +5 39 +19  1014.8  -1.3  761  286           
15 22.10.21 200 (Ю) н/о    ясно 
+16.7 +4.6 45 +17  1014.9  0.1  761  288    +19.9       
18 22.10.21 180 (Ю) н/о    ясно 
+12.8 +3.3 52 +13  1015.9  762  293    +19.9       
21 22.10.21 230 (ЮЗ) н/о    ясно 
+10.7 +2.2 56 +10  1016.2  0.3  762  295           
00 23.10.21 200 (Ю) н/о    ясно 
+9.1 +1.8 60 +9  1016.3  0.1  762  297           
03 23.10.21 160 (Ю) 10 км    ясно 
+6.3 +1.2 70 +7  1016.8  0.5  750  295           
06 23.10.21 020 (С) 10 км    8/0 верхняя 
[Ci]
+10.3 +2.3 58 +11  1018.1  1.3  763  296  +6         
09 23.10.21 340 (С) 10 км    9/0 верхняя 
[Ci ing]
+15.6 +3 43 +16  1017.5  -0.6  763  290           
12 23.10.21 270 (З) 10 км    9/0 верхняя 
[Ci sp]
+18.2 +3.2 37 +19  1016.4  -1.1  762  287           
15 23.10.21 320 (СЗ) н/о    9/0 средняя 
[Ac cast]
+15.8 +3 42 +17  1016  -0.4  762  290    +18.8       
18 23.10.21 тихо ()   н/о    ясно 
+13.7 +2.2 46 +14  1015.8  -0.2  761  292    +18.8       
21 23.10.21 180 (Ю) н/о    9/0 верхняя 
[Ci ing]
+11.1 +1.9 53 +12  1015.4  -0.4  761  294           
00 24.10.21 тихо ()   н/о    9/0 верхняя 
[Ci fib]
+9.6 +1.3 56 +10  1015.4  761  296           
03 24.10.21 тихо ()   н/о    10/10 600 м 
[Sc]
+9.9 +1.4 55 +10  1016  0.6  762  296           
06 24.10.21 180 (Ю) 10 км    10/10 600 м 
[Sc]
+10.9 +1.9 54 +12  1016.8  0.8  762  295  +9.1         
09 24.10.21 200 (Ю) 10 км    9/9 600 м 
[Sc]
+14.3 +2.7 46 +16  1017  0.2  762  292           
12 24.10.21 270 (З) 10 км    9/0 верхняя 
[Ci sp]
+15 +3 44 +15  1016.9  -0.1  762  291           
15 24.10.21 290 (З) н/о    10/0 средняя 
[Ac As]
+11.5 +1.7 51 +12  1017.6  0.7  763  295    +15.5       
18 24.10.21 340 (С) н/о    10/0 средняя 
[Ac As]
+9.8 +1.3 55 +11  1018  0.4  763  297    +15.5       
21 24.10.21 320 (СЗ) н/о    9/0 средняя 
[Ac cast]
+7.7 +1.1 63 +8  1017.9  -0.1  763  299           
00 25.10.21 360 (С) н/о    9/0 средняя 
[Ac lent]
+7 +0.6 64 +6  1017.6  -0.3  763  300           
03 25.10.21 020 (С) н/о    9/9 600 м 
[Sc]
+5.7 +0.3 68 +5  1018.3  0.7  750  296           
06 25.10.21 360 (С) 10 км    ясно 
+7.2 +1.1 65 +6  1019.9  1.6  765  300  +5.4         
09 25.10.21 320 (СЗ) 10 км  пыльный позёмок  9/0 средняя 
[Ac trans]
+8.1 +1.7 64 +6  1021.5  1.6  766  299           
Время (UTC), дата Ветер
(°,м/с) 
Видим.   Явления Облачность Т
(°С)
Тd
(°С)
f(%) Тe
(°С)
Pmin
(гПа)
dP
(гПа)
Po
(мм)
O2
(г/м3)
Тmin Tmax R s Состояние
почвы

Для получения пояснительной информации подведите курсор к названию столбца.

ПОГОДА в Урде - архив

Всё, что Вы хотите узнать о погоде в Урде - удобно и подробно!

Выберите нужную дату (начиная с 1 января 2019* года) и нажмите кнопку "Найти".
Будут отображены архивные сводки погоды по пункту Урда, начиная с указанной даты.


Отображать данные в формате CSV (для использования в таблицах Excel)


Внимание! Наш архив погоды предназначен исключительно для личного некоммерческого использования в познавательных целях. Если Вам необходимы официальные справки о состоянии погоды (для производственных, юридических, коммерческих и т.п. целей), обращайтесь в органы Росгидромета.

*Примечание: данная дата относится к архиву по метеостанциям СССР (Россия, СНГ, Балтия).
Архив по метеостанциям Зарубежной Европы и Азии (кроме Китая) хранится 10 дней, по другим регионам земного шара (Китай, Африка, Америка, Австралия, Океания) - 1 день.

Урда - район местоположения метеостанции


Название, широта, долгота, высота метеостанции:
Урда 48.8°ш. 47.4°д. 4 м над ур. моря [Казахстан]

Дополнительная информация

В oтличие oт бoльшинства пoгoдных сайтoв мы публикуем пoдрoбную метеoинфoрмацию в детальнoм прoфессиoнальнoм фoрмате.

Характеристики температуры и влажнoсти вoздуха измеряются на высoте 2 м в тени вдали oт зданий и деревьев.
Скoрoсть ветра измеряется на высoте 10 м (на урoвне рoста челoвека скoрoсть ветра ниже в 1.5-2 раза). Если метеoстанция нахoдится в гoрoде или в лесу, тo скoрoсть ветра занижена на 2-4 м/с пo сравнению с oткрытым местoм. Скoрoсть ветра над акватoриями крупных рек и oзёр, а также на вершинах хoлмoв на 2-5 м/с выше, чем в oбычных услoвиях.
Атмoсфернoе давление в разных тoчках местнoсти мoжет значительнo oтличаться oт давления на метеoстанции, в зависимoсти oт услoвий рельефа (при пoдъёме на 10 м давление пoнижается примернo на 1 мм рт.ст.).